Location: Pradons
(44.4746°N, 4.3578°E)
Time: 23:42:13
(UTC+00:00)

Cosmos 1340 Rocket - Pass Details

Date: 09 April 2020
Orbit: 529 x 559 km, 81.2° (Epoch: 02 June)

Event Time Altitude Azimuth Distance (km) Brightness Sun altitude
Rises 19:03:29 0° 171° (S) 2,726 6.1 -8.2°
Reaches altitude 10° 19:05:44 10° 164° (SSE) 1,833 5.1 -8.6°
Maximum altitude 19:09:32 41° 94° (E) 818 3.2 -9.2°
Drops below altitude 10° 19:13:20 10° 25° (NNE) 1,833 5.5 -9.9°
Sets 19:15:35 0° 18° (NNE) 2,726 6.4 -10.2°
